DW0268 Weather Reports


time (UTC)temp
C
wind
direction
speed
KPH
gust
KPH
rain 1hr
cm
rain 24hr
cm
rain mn
cm
humidity
%
barometer
mb
20260903013052 30 139 1.6 6.4 0.00 0.00 0.00 71 1017.1
20260903011550 31 138 0.0 6.4 0.00 0.00 0.00 70 1016.8
20260903010049 31 132 4.8 8.0 0.00 0.00 0.00 69 1016.5
20260903004549 31 134 1.6 3.2 0.00 0.00 0.00 67 1016.6
20260903003048 32 129 6.4 8.0 0.00 0.00 0.00 65 1016.7
20260903001547 33 121 4.8 6.4 0.00 0.00 0.00 63 1016.7
20260903000048 34 139 3.2 6.4 0.00 0.00 0.00 60 1016.6
20260902234548 35 161 1.6 4.8 0.00 0.00 0.00 57 1016.7
20260902233044 35 169 1.6 6.4 0.00 0.00 0.00 57 1016.5
20260902231543 36 173 4.8 8.0 0.00 0.00 0.00 55 1016.7
20260902230043 36 155 4.8 9.7 0.00 0.00 0.00 54 1016.8
20260902224546 36 162 4.8 9.7 0.00 0.00 0.00 54 1016.8
20260902223038 36 163 3.2 9.7 0.00 0.00 0.00 55 1016.9
20260902221535 36 193 8.0 14.5 0.00 0.00 0.00 54 1016.8
20260902220033 36 122 6.4 14.5 0.00 0.00 0.00 53 1017.0
20260902214537 36 148 6.4 12.9 0.00 0.00 0.00 55 1017.0
20260902213032 36 125 6.4 16.1 0.00 0.00 0.00 52 1017.1
20260902211529 36 136 4.8 12.9 0.00 0.00 0.00 52 1017.2
20260902210043 36 165 9.7 17.7 0.00 0.00 0.00 51 1017.3
20260902204526 36 167 9.7 19.3 0.00 0.00 0.00 52 1017.5
20260902203023 36 152 6.4 17.7 0.00 0.00 0.00 51 1017.6
20260902201522 36 217 9.7 20.9 0.00 0.00 0.00 50 1017.8
20260902200031 36 171 6.4 17.7 0.00 0.00 0.00 51 1017.9
20260902194525 36 181 12.9 22.5 0.00 0.00 0.00 50 1018.1
20260902193018 36 163 11.3 22.5 0.00 0.00 0.00 49 1018.3
20260902191518 36 152 4.8 14.5 0.00 0.00 0.00 52 1018.5
20260902190014 36 213 6.4 20.9 0.00 0.00 0.00 54 1018.7
20260902184511 35 170 9.7 16.1 0.00 0.00 0.00 55 1018.8
20260902183009 35 234 6.4 17.7 0.00 0.00 0.00 56 1018.8
20260902181607 35 219 6.4 14.5 0.00 0.00 0.00 57 1018.8
20260902180006 35 206 8.0 16.1 0.00 0.00 0.00 58 1018.9
20260902174504 35 196 9.7 22.5 0.00 0.00 0.00 58 1019.3
20260902173004 35 234 9.7 16.1 0.00 0.00 0.00 59 1019.5
20260902171502 35 182 4.8 11.3 0.00 0.00 0.00 60 1019.6
20260902170059 34 236 4.8 14.5 0.00 0.00 0.00 60 1019.9
20260902164557 34 195 8.0 12.9 0.00 0.00 0.00 64 1020.0
20260902163058 33 178 4.8 12.9 0.00 0.00 0.00 66 1020.1
20260902161548 33 212 6.4 12.9 0.00 0.00 0.00 68 1020.2
20260902160044 32 223 6.4 9.7 0.00 0.00 0.00 69 1020.3
20260902154541 32 149 1.6 8.0 0.00 0.00 0.00 72 1020.4
20260902153039 31 198 6.4 11.3 0.00 0.00 0.00 75 1020.5
20260902151534 31 218 4.8 9.7 0.00 0.00 0.00 75 1020.6
20260902150030 30 227 4.8 11.3 0.00 0.00 0.00 76 1020.6
20260902144534 30 182 4.8 9.7 0.00 0.00 0.00 78 1020.6
20260902143023 29 208 4.8 9.7 0.00 0.00 0.00 80 1020.5
20260902141520 28 188 4.8 9.7 0.00 0.00 0.00 82 1020.6
20260902140017 27 207 4.8 9.7 0.00 0.00 0.00 83 1020.5
20260902134512 27 218 6.4 11.3 0.00 0.00 0.00 85 1020.6
20260902133008 26 210 3.2 9.7 0.00 0.00 0.00 87 1020.6
20260902131504 26 161 0.0 3.2 0.00 0.00 0.00 90 1020.6
20260902130002 25 161 0.0 3.2 0.00 0.00 0.00 90 1020.5
20260902124502 25 160 1.6 3.2 0.00 0.00 0.00 91 1020.4
20260902123110 24 160 0.0 3.2 0.00 0.00 0.00 92 1020.3
20260902121603 23 160 0.0 3.2 0.00 0.00 0.00 92 1020.1
20260902120056 23 160 3.2 6.4 0.00 0.00 0.00 92 1019.9
20260902114600 23 160 4.8 6.4 0.00 0.00 0.00 92 1019.7
20260902113058 23 160 0.0 3.2 0.00 0.00 0.00 91 1019.7
20260902111553 23 160 0.0 3.2 0.00 0.00 0.00 91 1019.7
20260902110052 23 160 1.6 4.8 0.00 0.00 0.00 91 1019.4
20260902104555 23 159 3.2 6.4 0.00 0.00 0.00 91 1019.3
20260902103057 23 153 1.6 4.8 0.00 0.00 0.00 91 1019.3
20260902101547 23 147 1.6 3.2 0.00 0.00 0.00 91 1019.1
20260902094545 24 145 3.2 4.8 0.00 0.00 0.00 91 1019.0
20260902093045 24 145 1.6 4.8 0.00 0.00 0.00 92 1019.0
20260902091603 24 145 0.0 1.6 0.00 0.00 0.00 92 1018.9
20260902090044 24 145 0.0 0.0 0.00 0.00 0.00 92 1018.9
20260902084545 24 145 0.0 0.0 0.00 0.00 0.00 91 1019.0
20260902083041 24 145 0.0 1.6 0.00 0.00 0.00 91 1018.9
20260902081541 24 145 0.0 3.2 0.00 0.00 0.00 91 1018.7
20260902080052 24 145 0.0 4.8 0.00 0.00 0.00 90 1018.9
20260902074538 25 144 1.6 3.2 0.00 0.00 0.00 90 1018.8
20260902073035 25 139 1.6 4.8 0.00 0.00 0.00 89 1018.9
20260902071552 25 135 1.6 3.2 0.00 0.00 0.00 89 1019.0
20260902070031 25 135 0.0 4.8 0.00 0.00 0.00 89 1019.0
20260902064530 25 135 3.2 4.8 0.00 0.00 0.00 88 1018.8
20260902063034 26 134 1.6 4.8 0.00 0.00 0.00 88 1018.9
20260902061541 26 134 1.6 3.2 0.00 0.00 0.00 88 1018.8
20260902060031 26 134 0.0 3.2 0.00 0.00 0.00 87 1018.9
20260902054534 26 134 1.6 6.4 0.00 0.00 0.00 87 1018.8
20260902053023 26 129 4.8 8.0 0.00 0.00 0.00 86 1018.7
20260902051516 26 131 4.8 8.0 0.00 0.00 0.00 87 1018.6
20260902050013 26 130 3.2 6.4 0.00 0.00 0.00 86 1018.4
20260902044516 26 123 3.2 6.4 0.00 0.00 0.00 85 1018.4
20260902043010 27 133 4.8 8.0 0.00 0.00 0.00 84 1018.3
20260902041511 27 130 4.8 6.4 0.00 0.00 0.00 83 1018.4
20260902040009 27 115 3.2 6.4 0.00 0.00 0.00 82 1018.5
20260902034509 27 110 4.8 9.7 0.00 0.00 0.00 82 1018.4
20260902033009 27 109 4.8 9.7 0.00 0.00 0.00 83 1018.6
20260902031508 27 113 3.2 6.4 0.00 0.00 0.00 82 1018.6
20260902030007 28 111 1.6 6.4 0.00 0.00 0.00 80 1018.5
20260902024508 29 111 4.8 9.7 0.00 0.00 0.00 78 1018.4
20260902023014 29 112 4.8 9.7 0.00 0.00 0.00 77 1018.4
20260902021506 30 110 4.8 6.4 0.00 0.00 0.00 75 1018.3
20260902020004 30 115 4.8 9.7 0.00 0.00 0.00 74 1018.3
20260902014504 31 109 6.4 12.9 0.00 0.00 0.00 72 1018.1